User: anonymous   Login
Location: Newark
(44.4156°N, 12.1972°E)
Time: 12:56:31
(UTC+00:00)
Language:

STARLINK-1110 - Orbit

View from above orbital plane
View from above orbital plane
View from above satellite
View from above satellite

Ground track
Ground track

The orbit data is extracted from the following two-line orbital elements,

1 44946U 20001AJ  20099.25001157 -.00038071  00000-0 -26069-2 0  9997
2 44946  53.0014 309.6848 0001516  75.0856 114.1237 15.05592238 14367
Epoch (UTC): 08 April 2020 06:00:01
Eccentricity: 0.0001516
inclination: 53.0014°
perigee height: 548 km
apogee height: 551 km
right ascension of ascending node: 309.6848°
argument of perigee: 75.0856°
revolutions per day: 15.05592238
mean anomaly at epoch: 114.1237°
orbit number at epoch: 1436

The dashed part of the orbit path shows where the satellite is in the earth's shadow,  

DLR